• In Belgium
  • List of Countries
  • For 7 days
  • Water Temperature
  • Satellite Maps
  • Weather Map
  • Weather Widgets
  • user-avatar
    Login

    Hourly Weather Varna

    Today, 19 June, Tuesday

    Time Temperature Precipitation Wind Pressure Humidity
    00:00 +19°C° 0 mm 4 mps 743 mmHg 64%
    01:00 +18°C° 0 mm 4 mps 743 mmHg 62%
    02:00 +18°C° 0 mm 4 mps 743 mmHg 60%
    03:00 +18°C° 0 mm 4 mps 743 mmHg 61%
    04:00 +18°C° 0 mm 4 mps 744 mmHg 61%
    05:00 +16°C° 0 mm 5 mps 744 mmHg 62%
    06:00 +19°C° 0 mm 5 mps 744 mmHg 59%
    07:00 +21°C° 0 mm 5 mps 744 mmHg 55%
    08:00 +23°C° 0 mm 5 mps 745 mmHg 52%
    09:00 +26°C° 0 mm 5 mps 745 mmHg 47%
    10:00 +27°C° 0 mm 6 mps 745 mmHg 42%
    11:00 +29°C° 0 mm 6 mps 746 mmHg 36%
    12:00 +29°C° 0 mm 6 mps 746 mmHg 35%
    13:00 +30°C° 0 mm 6 mps 746 mmHg 35%
    14:00 +30°C° 0 mm 6 mps 746 mmHg 34%
    15:00 +30°C° 0 mm 6 mps 745 mmHg 37%
    16:00 +29°C° 0 mm 6 mps 745 mmHg 39%
    17:00 +29°C° 0 mm 5 mps 745 mmHg 42%
    18:00 +26°C° 0 mm 5 mps 745 mmHg 50%
    19:00 +23°C° 0 mm 4 mps 745 mmHg 58%
    20:00 +21°C° 0 mm 4 mps 746 mmHg 66%
    21:00 +20°C° 0 mm 3 mps 746 mmHg 67%
    22:00 +20°C° 0 mm 3 mps 746 mmHg 68%
    23:00 +19°C° 0 mm 3 mps 747 mmHg 69%

    Tomorrow, 20 June, Wednesday

    Time Temperature Precipitation Wind Pressure Humidity
    00:00 +19°C° 0 mm 3 mps 747 mmHg 67%
    01:00 +18°C° 0 mm 4 mps 747 mmHg 64%
    02:00 +18°C° 0 mm 4 mps 747 mmHg 62%
    03:00 +18°C° 0 mm 4 mps 747 mmHg 62%
    04:00 +17°C° 0 mm 4 mps 747 mmHg 62%
    05:00 +16°C° 0 mm 5 mps 747 mmHg 61%
    06:00 +20°C° 0 mm 5 mps 747 mmHg 58%
    07:00 +22°C° 0 mm 5 mps 747 mmHg 55%
    08:00 +25°C° 0 mm 4 mps 748 mmHg 52%
    09:00 +27°C° 0 mm 5 mps 748 mmHg 49%
    10:00 +29°C° 0 mm 5 mps 748 mmHg 45%
    11:00 +30°C° 0 mm 5 mps 748 mmHg 42%
    12:00 +30°C° 0 mm 5 mps 748 mmHg 42%
    13:00 +30°C° 0 mm 5 mps 748 mmHg 41%
    14:00 +30°C° 0 mm 5 mps 748 mmHg 41%
    15:00 +30°C° 0 mm 5 mps 747 mmHg 42%
    16:00 +30°C° 0 mm 5 mps 747 mmHg 43%
    17:00 +29°C° 0 mm 5 mps 747 mmHg 44%
    18:00 +27°C° 0 mm 4 mps 747 mmHg 50%
    19:00 +25°C° 0 mm 3 mps 747 mmHg 57%
    20:00 +22°C° 0 mm 3 mps 747 mmHg 64%
    21:00 +21°C° 0 mm 2 mps 747 mmHg 66%
    22:00 +20°C° 0 mm 2 mps 747 mmHg 68%
    23:00 +20°C° 0 mm 2 mps 747 mmHg 69%

    Day after tomorrow, 21 June, Thursday

    Time Temperature Precipitation Wind Pressure Humidity
    00:00 +19°C° 0 mm 2 mps 747 mmHg 69%
    01:00 +19°C° 0 mm 2 mps 747 mmHg 68%
    02:00 +19°C° 0 mm 3 mps 747 mmHg 68%
    03:00 +19°C° 0 mm 3 mps 747 mmHg 69%
    04:00 +18°C° 0 mm 3 mps 747 mmHg 70%
    05:00 +18°C° 0 mm 3 mps 746 mmHg 70%
    06:00 +20°C° 0 mm 4 mps 746 mmHg 66%
    07:00 +23°C° 0 mm 4 mps 747 mmHg 62%
    08:00 +26°C° 0 mm 4 mps 747 mmHg 58%
    09:00 +27°C° 0.2 mm 4 mps 746 mmHg 55%
    10:00 +29°C° 0.2 mm 4 mps 746 mmHg 52%
    11:00 +30°C° 0.2 mm 4 mps 746 mmHg 48%
    12:00 +30°C° 0.1 mm 4 mps 746 mmHg 48%
    13:00 +32°C° 0.1 mm 4 mps 745 mmHg 47%
    14:00 +32°C° 0.1 mm 4 mps 745 mmHg 47%
    15:00 +30°C° 0 mm 4 mps 745 mmHg 49%
    16:00 +30°C° 0 mm 4 mps 745 mmHg 51%
    17:00 +30°C° 0 mm 4 mps 744 mmHg 53%
    18:00 +28°C° 0.2 mm 3 mps 744 mmHg 60%
    19:00 +26°C° 0.2 mm 3 mps 744 mmHg 68%
    20:00 +24°C° 0.2 mm 2 mps 744 mmHg 75%
    21:00 +23°C° 0.1 mm 2 mps 744 mmHg 79%
    22:00 +21°C° 0.1 mm 2 mps 744 mmHg 82%
    23:00 +21°C° 0.1 mm 1 mps 744 mmHg 86%

    22 June, Friday

    Time Temperature Precipitation Wind Pressure Humidity
    00:00 +21°C° 0 mm 1 mps 744 mmHg 85%
    01:00 +21°C° 0 mm 1 mps 744 mmHg 84%
    02:00 +21°C° 0 mm 1 mps 743 mmHg 84%
    03:00 +21°C° 0 mm 1 mps 743 mmHg 83%
    04:00 +21°C° 0 mm 1 mps 743 mmHg 82%
    05:00 +21°C° 0 mm 1 mps 743 mmHg 81%
    06:00 +23°C° 0 mm 1 mps 743 mmHg 74%
    07:00 +25°C° 0 mm 1 mps 743 mmHg 67%
    08:00 +27°C° 0 mm 1 mps 743 mmHg 61%
    09:00 +28°C° 0 mm 1 mps 743 mmHg 57%
    10:00 +29°C° 0 mm 1 mps 742 mmHg 52%
    11:00 +31°C° 0 mm 1 mps 742 mmHg 48%
    12:00 +31°C° 0.3 mm 2 mps 742 mmHg 48%
    13:00 +31°C° 0.3 mm 2 mps 741 mmHg 48%
    14:00 +31°C° 0.3 mm 3 mps 741 mmHg 48%
    15:00 +30°C° 0.1 mm 3 mps 741 mmHg 51%
    16:00 +30°C° 0.1 mm 3 mps 741 mmHg 53%
    17:00 +30°C° 0.1 mm 3 mps 741 mmHg 55%
    18:00 +28°C° 0.3 mm 3 mps 740 mmHg 61%
    19:00 +26°C° 0.3 mm 3 mps 740 mmHg 67%
    20:00 +24°C° 0.3 mm 3 mps 740 mmHg 74%
    21:00 +24°C° 0.7 mm 3 mps 740 mmHg 76%
    22:00 +23°C° 0.7 mm 2 mps 741 mmHg 79%
    23:00 +21°C° 0.7 mm 2 mps 741 mmHg 82%

    23 June, Saturday

    Time Temperature Precipitation Wind Pressure Humidity
    00:00 +21°C° 0.8 mm 3 mps 741 mmHg 85%
    01:00 +20°C° 0.8 mm 4 mps 741 mmHg 87%
    02:00 +20°C° 0.8 mm 4 mps 741 mmHg 90%
    03:00 +19°C° 0.6 mm 6 mps 741 mmHg 90%
    04:00 +17°C° 0.6 mm 7 mps 742 mmHg 91%
    05:00 +17°C° 0.6 mm 8 mps 742 mmHg 91%
    06:00 +16°C° 0.2 mm 8 mps 743 mmHg 89%
    07:00 +15°C° 0.2 mm 8 mps 743 mmHg 87%
    08:00 +15°C° 0.2 mm 9 mps 744 mmHg 85%
    09:00 +16°C° 0 mm 9 mps 745 mmHg 79%
    10:00 +17°C° 0 mm 9 mps 745 mmHg 73%
    11:00 +19°C° 0 mm 9 mps 746 mmHg 66%
    12:00 +20°C° 0 mm 8 mps 746 mmHg 64%
    13:00 +20°C° 0 mm 8 mps 746 mmHg 62%
    14:00 +21°C° 0 mm 8 mps 746 mmHg 60%
    15:00 +20°C° 0 mm 7 mps 746 mmHg 62%
    16:00 +18°C° 0 mm 7 mps 746 mmHg 63%
    17:00 +17°C° 0 mm 6 mps 747 mmHg 64%
    18:00 +16°C° 0 mm 5 mps 747 mmHg 65%
    19:00 +17°C° 0 mm 4 mps 747 mmHg 66%
    20:00 +16°C° 0 mm 3 mps 747 mmHg 68%
    21:00 +16°C° 0 mm 3 mps 747 mmHg 69%
    22:00 +16°C° 0 mm 3 mps 748 mmHg 69%
    23:00 +16°C° 0 mm 3 mps 748 mmHg 70%

    24 June, Sunday

    Time Temperature Precipitation Wind Pressure Humidity
    00:00 +14°C° 0 mm 3 mps 748 mmHg 74%
    01:00 +13°C° 0 mm 3 mps 748 mmHg 77%
    02:00 +12°C° 0 mm 3 mps 748 mmHg 81%
    03:00 +12°C° 0 mm 4 mps 748 mmHg 82%
    04:00 +12°C° 0 mm 4 mps 748 mmHg 84%
    05:00 +12°C° 0 mm 4 mps 748 mmHg 85%
    06:00 +14°C° 0 mm 4 mps 748 mmHg 77%
    07:00 +17°C° 0 mm 4 mps 748 mmHg 70%
    08:00 +20°C° 0 mm 4 mps 748 mmHg 62%
    09:00 +21°C° 0 mm 4 mps 749 mmHg 56%
    10:00 +22°C° 0 mm 4 mps 749 mmHg 50%
    11:00 +23°C° 0 mm 4 mps 749 mmHg 44%
    12:00 +25°C° 0 mm 4 mps 749 mmHg 44%
    13:00 +25°C° 0 mm 4 mps 748 mmHg 44%
    14:00 +26°C° 0 mm 4 mps 748 mmHg 43%
    15:00 +25°C° 0 mm 4 mps 748 mmHg 46%
    16:00 +25°C° 0 mm 4 mps 748 mmHg 49%
    17:00 +23°C° 0 mm 4 mps 748 mmHg 52%
    18:00 +22°C° 0 mm 4 mps 748 mmHg 58%
    19:00 +20°C° 0 mm 4 mps 748 mmHg 65%
    20:00 +18°C° 0 mm 3 mps 748 mmHg 72%
    21:00 +17°C° 0 mm 3 mps 748 mmHg 74%
    22:00 +17°C° 0 mm 3 mps 748 mmHg 77%
    23:00 +16°C° 0 mm 2 mps 748 mmHg 79%
    Show more